QPF
0.27 0.30 0.23 0.19 0.11 0.03 0.00 0.00 0.00 0.01 0.02 0.01 0.04 0.11 0.15 0.13 0.10 0.07 0.04 0.05 0.13 0.20 0.22 0.21 0.16 0.13 0.09 0.09 0.08 0.04 0.02 0.01 0.00 0.00 0.00 0.00 0.00 0.01 0.02 0.00 0.00 0.00 0.00
0.15 0.25 0.34 0.13 0.06 0.01 0.00 0.00 0.01 0.01 0.02 0.04 0.06 0.04 0.02 0.01 0.00 0.02 0.04 0.07 0.14 0.13 0.07 0.11 0.12 0.13 0.09 0.08 0.07 0.05 0.03 0.02 0.01 0.00 0.00 0.00 0.00 0.00 0.01 0.01 0.00 0.00 0.00
0.18 0.24 0.20 0.06 0.02 0.01 0.03 0.04 0.04 0.02 0.01 0.01 0.00 0.00 0.00 0.00 0.00 0.00 0.01 0.02 0.08 0.07 0.06 0.06 0.06 0.08 0.07 0.09 0.07 0.06 0.06 0.05 0.02 0.00 0.00 0.00 0.00 0.00 0.00 0.00 0.00 0.00 0.00
0.07 0.02 0.01 0.00 0.01 0.03 0.03 0.01 0.01 0.00 0.00 0.00 0.00 0.00 0.00 0.01 0.01 0.02 0.02 0.02 0.01 0.00 0.01 0.01 0.02 0.03 0.03 0.04 0.05 0.06 0.05 0.05 0.04 0.02 0.01 0.00 0.00 0.00 0.00 0.00 0.00 0.00 0.00
0.02 0.03 0.02 0.01 0.01 0.00 0.00 0.00 0.00 0.00 0.00 0.00 0.00 0.00 0.00 0.00 0.00 0.00 0.00 0.00 0.00 0.00 0.00 0.01 0.02 0.03 0.05 0.04 0.04 0.04 0.06 0.05 0.04 0.03 0.02 0.01 0.00 0.00 0.00 0.00 0.00 0.00 0.00
0.02 0.01 0.02 0.01 0.00 0.00 0.00 0.00 0.00 0.00 0.00 0.00 0.00 0.00 0.00 0.00 0.00 0.00 0.00 0.00 0.00 0.00 0.00 0.00 0.00 0.00 0.00 0.01 0.02 0.03 0.05 0.05 0.05 0.05 0.02 0.01 0.00 0.00 0.00 0.00 0.00 0.00 0.00
0.00 0.00 0.00 0.00 0.00 0.00 0.00 0.00 0.00 0.00 0.00 0.00 0.00 0.00 0.00 0.00 0.00 0.00 0.00 0.00 0.00 0.00 0.00 0.00 0.00 0.00 0.00 0.00 0.01 0.03 0.02 0.03 0.04 0.01 0.00 0.01 0.01 0.01 0.01 0.00 0.00 0.00 0.00
0.00 0.00 0.00 0.00 0.00 0.00 0.00 0.00 0.00 0.00 0.00 0.00 0.00 0.00 0.00 0.00 0.00 0.00 0.00 0.00 0.00 0.00 0.00 0.00 0.00 0.00 0.01 0.02 0.01 0.02 0.01 0.01 0.00 0.00 0.00 0.00 0.00 0.01 0.01 0.01 0.01 0.01 0.00
0.00 0.00 0.00 0.00 0.00 0.00 0.00 0.00 0.00 0.00 0.00 0.00 0.00 0.00 0.00 0.00 0.00 0.00 0.00 0.00 0.00 0.00 0.00 0.00 0.00 0.00 0.00 0.00 0.00 0.02 0.01 0.00 0.02 0.01 0.00 0.00 0.00 0.00 0.01 0.03 0.01 0.01 0.00
0.00 0.00 0.00 0.00 0.00 0.00 0.00 0.00 0.00 0.00 0.00 0.00 0.00 0.00 0.01 0.02 0.00 0.00 0.00 0.00 0.00 0.00 0.00 0.00 0.00 0.00 0.00 0.00 0.00 0.01 0.00 0.00 0.01 0.01 0.00 0.00 0.00 0.00 0.00 0.01 0.01 0.01 0.00
0.00 0.00 0.00 0.00 0.00 0.00 0.00 0.00 0.00 0.00 0.00 0.00 0.00 0.00 0.01 0.01 0.00 0.00 0.00 0.00 0.00 0.00 0.00 0.00 0.00 0.00 0.00 0.00 0.00 0.00 0.00 0.00 0.01 0.01 0.00 0.00 0.00 0.00 0.00 0.00 0.00 0.00 0.00
0.00 0.00 0.00 0.00 0.00 0.00 0.00 0.00 0.00 0.00 0.00 0.00 0.00 0.00 0.00 0.00 0.00 0.00 0.00 0.00 0.00 0.00 0.00 0.00 0.00 0.00 0.00 0.00 0.00 0.00 0.00 0.00 0.00 0.00 0.01 0.01 0.01 0.00 0.00 0.00 0.00 0.00 0.00
0.00 0.00 0.00 0.00 0.00 0.00 0.00 0.01 0.00 0.00 0.00 0.01 0.01 0.00 0.00 0.00 0.00 0.00 0.00 0.00 0.00 0.00 0.00 0.00 0.00 0.00 0.00 0.00 0.00 0.00 0.01 0.01 0.00 0.00 0.00 0.00 0.00 0.00 0.00 0.00 0.00 0.00 0.00
0.00 0.00 0.00 0.00 0.00 0.00 0.00 0.00 0.00 0.01 0.01 0.01 0.00 0.00 0.00 0.00 0.00 0.00 0.00 0.00 0.00 0.00 0.00 0.00 0.00 0.00 0.00 0.01 0.01 0.02 0.03 0.02 0.00 0.00 0.00 0.00 0.01 0.01 0.01 0.01 0.00 0.00 0.01
0.00 0.00 0.00 0.00 0.00 0.00 0.00 0.00 0.00 0.01 0.01 0.00 0.00 0.00 0.00 0.00 0.00 0.00 0.00 0.00 0.00 0.00 0.00 0.00 0.00 0.00 0.01 0.03 0.07 0.11 0.05 0.00 0.00 0.00 0.01 0.01 0.01 0.01 0.01 0.00 0.00 0.01 0.01
0.00 0.00 0.00 0.00 0.00 0.00 0.00 0.00 0.00 0.00 0.00 0.01 0.01 0.01 0.00 0.00 0.00 0.00 0.00 0.00 0.00 0.00 0.00 0.00 0.00 0.00 0.00 0.00 0.00 0.01 0.00 0.00 0.00 0.00 0.00 0.00 0.00 0.00 0.02 0.01 0.01 0.01 0.00
0.00 0.00 0.00 0.00 0.00 0.00 0.00 0.00 0.00 0.00 0.00 0.02 0.01 0.00 0.00 0.00 0.00 0.00 0.00 0.00 0.00 0.00 0.00 0.00 0.00 0.00 0.00 0.00 0.00 0.00 0.00 0.00 0.00 0.00 0.00 0.00 0.01 0.01 0.02 0.02 0.03 0.01 0.01
0.00 0.00 0.00 0.00 0.00 0.00 0.00 0.00 0.00 0.00 0.00 0.00 0.00 0.00 0.00 0.00 0.00 0.00 0.00 0.00 0.00 0.00 0.00 0.00 0.00 0.00 0.00 0.00 0.00 0.00 0.00 0.00 0.00 0.00 0.00 0.01 0.02 0.02 0.01 0.02 0.02 0.02 0.01
0.00 0.00 0.00 0.00 0.00 0.00 0.00 0.00 0.00 0.00 0.00 0.00 0.00 0.00 0.00 0.00 0.00 0.00 0.00 0.00 0.00 0.00 0.00 0.00 0.00 0.00 0.00 0.00 0.00 0.00 0.00 0.00 0.00 0.00 0.00 0.00 0.01 0.01 0.01 0.01 0.01 0.01 0.00
0.00 0.00 0.00 0.00 0.00 0.00 0.00 0.00 0.00 0.00 0.00 0.00 0.00 0.00 0.00 0.00 0.00 0.00 0.00 0.00 0.00 0.00 0.00 0.00 0.00 0.00 0.00 0.00 0.00 0.00 0.00 0.00 0.00 0.00 0.00 0.00 0.00 0.00 0.00 0.00 0.00 0.00 0.00
0.00 0.00 0.00 0.00 0.00 0.00 0.00 0.00 0.00 0.00 0.00 0.00 0.00 0.00 0.00 0.00 0.00 0.00 0.00 0.00 0.00 0.00 0.00 0.00 0.00 0.00 0.00 0.00 0.00 0.00 0.00 0.00 0.00 0.00 0.00 0.00 0.00 0.00 0.00 0.00 0.00 0.00 0.00
0.00 0.00 0.00 0.00 0.00 0.00 0.00 0.00 0.00 0.00 0.00 0.00 0.00 0.00 0.00 0.00 0.00 0.00 0.00 0.00 0.00 0.00 0.00 0.00 0.00 0.00 0.00 0.00 0.00 0.00 0.00 0.00 0.00 0.00 0.00 0.00 0.00 0.00 0.00 0.00 0.00 0.00 0.00
0.00 0.00 0.00 0.00 0.00 0.00 0.00 0.00 0.00 0.00 0.00 0.00 0.00 0.01 0.00 0.00 0.00 0.00 0.00 0.00 0.00 0.00 0.00 0.00 0.00 0.00 0.00 0.00 0.00 0.00 0.00 0.00 0.00 0.00 0.00 0.00 0.00 0.00 0.00 0.00 0.00 0.00 0.00
0.00 0.00 0.01 0.00 0.00 0.00 0.00 0.00 0.00 0.00 0.00 0.01 0.02 0.02 0.02 0.00 0.00 0.00 0.00 0.00 0.00 0.00 0.00 0.00 0.00 0.00 0.00 0.00 0.00 0.00 0.00 0.00 0.00 0.00 0.00 0.00 0.00 0.00 0.00 0.00 0.00 0.00 0.00
0.01 0.00 0.00 0.00 0.00 0.00 0.00 0.00 0.02 0.00 0.01 0.01 0.00 0.00 0.00 0.00 0.00 0.00 0.00 0.00 0.00 0.00 0.00 0.00 0.00 0.00 0.00 0.00 0.00 0.00 0.00 0.00 0.00 0.00 0.00 0.00 0.00 0.00 0.00 0.00 0.00 0.00 0.00
0.02 0.00 0.01 0.00 0.00 0.00 0.02 0.00 0.00 0.01 0.00 0.00 0.00 0.00 0.00 0.00 0.00 0.00 0.00 0.00 0.00 0.00 0.00 0.00 0.00 0.00 0.00 0.00 0.00 0.00 0.00 0.00 0.00 0.00 0.00 0.01 0.00 0.00 0.00 0.00 0.00 0.00 0.00
MSLP
1013.60 1014.08 1014.49 1014.16 1014.35 1015.37 1015.93 1015.96 1015.92 1015.85 1016.23 1016.28 1015.79 1015.44 1015.19 1015.06 1015.12 1015.34 1015.31 1015.29 1015.32 1015.16 1015.00 1014.87 1014.39 1014.35 1014.39 1014.21 1014.16 1014.00 1014.41 1014.86 1014.88 1014.32 1014.14 1013.98 1014.03 1014.12 1014.37 1014.33 1014.43 1014.97 1015.73
1013.68 1014.79 1014.43 1014.61 1014.77 1015.17 1015.65 1015.72 1015.84 1015.78 1015.83 1015.74 1015.28 1015.02 1014.87 1014.79 1014.84 1014.88 1014.93 1014.89 1015.11 1014.94 1014.60 1014.36 1014.05 1013.66 1013.66 1013.68 1013.41 1012.81 1013.07 1013.87 1014.55 1014.85 1014.35 1014.21 1014.25 1014.40 1014.87 1015.04 1015.06 1015.04 1015.17
1015.32 1015.29 1014.56 1015.21 1014.50 1014.91 1015.31 1015.34 1015.73 1015.84 1016.01 1015.64 1015.32 1015.06 1014.99 1014.82 1014.69 1014.60 1014.68 1014.65 1014.63 1014.55 1014.30 1014.17 1013.97 1013.79 1013.66 1013.37 1012.51 1012.89 1013.01 1013.68 1013.95 1014.69 1014.52 1014.29 1014.44 1014.63 1015.39 1015.29 1015.44 1015.65 1015.55
1014.91 1014.58 1014.27 1013.91 1014.32 1014.87 1015.23 1015.79 1016.10 1016.01 1015.82 1015.71 1015.48 1015.26 1015.10 1015.02 1014.91 1014.82 1014.81 1014.59 1014.46 1014.40 1014.20 1013.90 1013.58 1013.45 1013.36 1013.21 1013.22 1013.10 1013.35 1013.73 1013.99 1014.21 1014.12 1014.25 1014.36 1014.72 1014.86 1015.29 1015.82 1015.94 1016.05
1014.14 1014.06 1014.11 1014.24 1014.59 1015.21 1015.77 1015.78 1015.87 1015.82 1015.77 1015.58 1015.40 1015.08 1015.03 1014.93 1014.95 1014.92 1014.77 1014.56 1014.43 1014.35 1014.03 1013.65 1013.34 1013.04 1012.79 1012.60 1012.75 1012.82 1013.07 1013.27 1013.34 1013.44 1013.51 1013.54 1013.67 1014.08 1014.28 1014.61 1014.91 1015.35 1015.98
1014.37 1014.52 1014.68 1014.98 1015.20 1015.27 1015.56 1015.79 1015.82 1015.89 1015.76 1015.72 1015.60 1015.30 1015.28 1014.97 1014.78 1014.69 1014.58 1014.48 1014.25 1014.19 1014.06 1013.46 1013.00 1012.66 1012.28 1012.02 1011.88 1011.91 1012.14 1012.45 1012.64 1012.76 1012.73 1013.01 1012.78 1012.84 1013.09 1013.57 1014.04 1014.70 1015.48
1014.48 1014.66 1014.60 1014.76 1015.05 1015.35 1015.47 1015.61 1015.80 1015.84 1015.71 1015.66 1015.55 1015.38 1015.22 1014.91 1014.58 1014.41 1014.19 1014.14 1014.04 1013.80 1013.52 1013.20 1012.78 1012.28 1011.99 1011.78 1011.51 1011.32 1011.36 1011.48 1011.66 1011.95 1012.40 1012.57 1012.69 1012.52 1012.93 1012.80 1012.67 1013.32 1013.71
1014.66 1014.74 1014.82 1014.98 1015.09 1015.17 1015.41 1015.60 1015.62 1015.55 1015.48 1015.49 1015.48 1015.31 1015.15 1014.77 1014.70 1014.38 1014.05 1013.87 1013.68 1013.32 1012.76 1012.72 1012.66 1012.31 1012.04 1011.86 1011.58 1011.35 1011.05 1011.01 1010.85 1011.30 1011.52 1011.45 1011.45 1011.51 1012.05 1011.87 1012.25 1012.62 1013.09
1014.63 1014.68 1014.62 1014.66 1014.90 1015.15 1015.38 1015.53 1015.57 1015.36 1015.39 1015.43 1015.29 1015.25 1015.11 1015.05 1014.58 1014.13 1013.73 1013.53 1013.30 1013.02 1012.65 1012.24 1011.97 1012.14 1011.78 1011.47 1011.53 1011.56 1011.38 1010.85 1010.21 1010.41 1010.41 1010.48 1010.76 1011.00 1011.15 1011.68 1011.68 1012.11 1012.65
1014.86 1014.81 1014.74 1014.79 1015.02 1015.20 1015.37 1015.37 1015.12 1015.07 1015.13 1015.09 1014.96 1014.84 1014.68 1014.96 1014.56 1014.59 1013.77 1013.59 1013.33 1012.80 1012.35 1012.12 1011.89 1011.92 1011.83 1011.62 1011.51 1011.48 1011.37 1010.89 1010.58 1010.26 1010.30 1010.31 1010.23 1010.45 1010.82 1011.01 1010.96 1011.35 1011.47
1014.86 1014.80 1014.78 1014.83 1014.84 1014.85 1015.12 1014.96 1014.94 1015.31 1015.85 1015.81 1015.33 1014.71 1014.54 1014.41 1013.97 1013.84 1013.53 1013.22 1013.00 1012.78 1012.50 1012.26 1011.82 1011.72 1011.57 1011.33 1011.19 1011.15 1010.76 1010.30 1010.25 1010.23 1009.97 1009.68 1009.63 1009.81 1009.96 1010.16 1010.16 1010.38 1010.61
1014.88 1014.90 1014.85 1014.76 1014.61 1014.54 1014.93 1015.28 1015.36 1015.60 1015.87 1016.04 1015.73 1015.59 1014.66 1014.24 1013.73 1013.64 1013.59 1013.25 1012.96 1013.05 1012.78 1012.24 1011.80 1011.47 1011.03 1010.54 1010.17 1009.75 1009.51 1009.87 1009.62 1009.63 1009.59 1009.34 1009.07 1009.00 1009.36 1009.46 1009.42 1009.61 1009.64
1014.78 1014.86 1014.88 1014.64 1014.49 1014.70 1014.97 1015.45 1016.00 1015.98 1016.05 1015.62 1016.52 1015.57 1014.84 1014.25 1013.76 1013.68 1013.75 1013.50 1013.21 1012.97 1012.43 1012.00 1011.63 1011.02 1010.34 1009.74 1009.10 1008.77 1009.07 1009.27 1009.09 1009.10 1009.00 1008.77 1008.47 1008.17 1008.54 1009.00 1009.01 1009.02 1009.46
1014.69 1014.83 1014.86 1015.02 1015.07 1014.71 1015.61 1015.76 1015.90 1015.75 1015.63 1015.38 1015.62 1015.50 1014.85 1014.47 1014.25 1013.99 1014.11 1013.66 1013.20 1012.81 1012.50 1011.99 1011.26 1010.69 1009.79 1009.13 1008.51 1008.31 1008.41 1008.51 1008.59 1008.51 1008.30 1008.05 1007.73 1007.80 1008.03 1008.32 1008.63 1008.87 1009.20
1014.96 1015.20 1015.41 1015.43 1015.46 1015.55 1015.65 1015.58 1015.53 1015.26 1015.01 1015.01 1015.23 1015.10 1014.79 1014.71 1014.64 1014.64 1014.52 1013.89 1013.56 1013.18 1012.84 1011.93 1011.22 1010.53 1009.83 1009.26 1008.60 1008.10 1008.14 1008.35 1008.25 1008.01 1007.80 1007.57 1007.50 1007.49 1007.52 1007.80 1008.03 1008.40 1009.11
1015.52 1015.55 1015.63 1015.78 1015.57 1015.63 1015.58 1015.32 1014.94 1014.91 1014.75 1014.79 1014.93 1014.90 1014.86 1014.78 1014.60 1014.46 1014.09 1013.64 1013.51 1013.14 1012.78 1012.39 1011.86 1011.07 1010.30 1009.80 1008.98 1008.62 1008.51 1008.38 1008.14 1007.94 1007.64 1007.36 1007.29 1007.18 1007.27 1007.40 1007.63 1008.46 1009.54
1015.82 1015.95 1015.90 1015.78 1015.77 1015.65 1015.51 1015.52 1015.70 1015.29 1015.09 1015.15 1015.12 1015.06 1015.01 1014.67 1014.39 1014.16 1013.90 1013.62 1013.24 1013.03 1012.97 1012.45 1012.00 1011.27 1010.93 1010.33 1009.97 1009.55 1009.18 1008.84 1008.51 1008.23 1008.06 1007.86 1007.69 1007.72 1007.92 1008.34 1008.74 1009.24 1010.00
1015.81 1015.80 1015.81 1015.81 1015.76 1015.59 1015.54 1015.79 1015.87 1015.95 1015.94 1015.82 1015.52 1015.26 1015.03 1014.64 1014.42 1014.17 1013.77 1013.37 1013.17 1013.02 1012.65 1012.18 1011.72 1011.29 1010.88 1010.63 1010.01 1009.76 1009.64 1009.28 1009.04 1008.74 1008.46 1008.27 1008.15 1008.19 1008.21 1008.56 1008.99 1009.63 1010.38
1015.70 1015.67 1015.72 1015.80 1015.69 1015.98 1016.07 1016.23 1016.32 1016.21 1016.16 1015.99 1015.70 1015.30 1015.13 1014.79 1014.39 1013.97 1013.65 1013.71 1013.50 1013.09 1012.51 1012.00 1011.65 1011.24 1010.85 1010.68 1010.33 1009.82 1009.76 1009.43 1009.22 1009.17 1008.85 1008.77 1008.73 1008.87 1009.07 1009.31 1009.71 1010.18 1010.44
1015.61 1015.51 1015.64 1015.95 1016.06 1016.24 1016.40 1016.50 1016.45 1016.48 1016.40 1016.39 1016.29 1016.06 1015.66 1015.10 1014.69 1014.19 1013.78 1013.61 1013.47 1013.27 1012.99 1012.58 1012.09 1011.58 1011.25 1010.95 1010.42 1010.22 1010.04 1009.78 1009.91 1009.77 1009.37 1009.11 1008.96 1009.09 1009.23 1009.63 1009.97 1010.51 1010.81
1015.69 1015.46 1015.70 1016.05 1016.23 1016.57 1016.61 1016.63 1016.75 1016.83 1016.79 1016.62 1016.39 1015.97 1015.68 1015.79 1015.04 1014.53 1014.17 1013.94 1013.83 1013.57 1013.41 1013.20 1012.94 1012.61 1012.43 1012.05 1011.56 1011.24 1011.13 1011.03 1010.77 1010.60 1010.42 1010.24 1009.94 1010.01 1010.00 1010.12 1010.54 1011.04 1011.45
1015.49 1015.64 1015.86 1016.03 1016.36 1016.62 1016.69 1016.81 1016.95 1017.02 1016.88 1016.71 1016.46 1015.96 1015.36 1015.23 1015.00 1014.63 1014.37 1014.15 1014.00 1013.86 1013.83 1013.78 1013.80 1013.66 1013.47 1013.18 1012.86 1012.45 1012.24 1012.05 1011.72 1011.40 1011.22 1011.06 1011.00 1010.95 1010.94 1011.11 1011.22 1011.57 1012.05
1015.67 1015.83 1015.84 1016.10 1016.31 1016.54 1016.69 1016.79 1016.81 1016.83 1016.72 1016.56 1016.27 1015.93 1015.43 1015.22 1015.09 1014.77 1014.58 1014.36 1014.26 1014.34 1014.33 1014.35 1014.40 1014.36 1014.13 1013.97 1013.84 1013.71 1013.51 1013.23 1012.79 1012.24 1012.02 1011.89 1011.83 1011.87 1011.87 1011.99 1012.12 1012.32 1012.43
1015.82 1015.87 1015.94 1016.18 1016.29 1016.28 1016.38 1016.51 1016.51 1016.23 1016.07 1015.99 1015.90 1015.69 1015.53 1015.22 1015.09 1014.95 1014.80 1014.77 1014.64 1014.76 1014.81 1014.97 1014.98 1015.03 1014.94 1014.82 1014.65 1014.50 1014.22 1013.64 1012.94 1012.82 1012.55 1012.40 1012.32 1012.27 1012.35 1012.56 1012.64 1012.80 1012.97
1015.89 1016.03 1016.12 1016.20 1016.32 1016.25 1016.32 1016.52 1016.55 1016.07 1015.93 1015.92 1015.58 1015.46 1015.21 1015.37 1015.27 1015.20 1015.04 1015.01 1014.88 1015.03 1015.30 1015.36 1015.37 1015.39 1015.50 1015.47 1015.27 1014.96 1014.61 1014.29 1013.86 1013.21 1012.72 1012.49 1012.44 1012.36 1012.56 1012.88 1013.01 1013.26 1013.35
1016.25 1016.48 1016.36 1016.29 1016.20 1016.07 1016.27 1016.05 1015.98 1016.24 1016.12 1015.85 1015.53 1015.66 1015.66 1015.67 1015.75 1015.66 1015.46 1015.34 1015.28 1015.39 1015.67 1015.81 1015.77 1015.73 1015.83 1015.87 1015.79 1015.41 1014.95 1014.53 1014.09 1013.63 1013.11 1012.73 1012.80 1012.97 1012.70 1012.95 1013.15 1013.46 1013.73
Thickness
5719 5712 5709 5706 5704 5696 5688 5684 5678 5676 5670 5665 5665 5662 5659 5656 5652 5646 5642 5640 5636 5633 5631 5628 5630 5628 5625 5622 5622 5618 5612 5606 5604 5611 5609 5610 5608 5607 5606 5608 5610 5607 5600
5718 5700 5695 5699 5694 5687 5682 5677 5672 5668 5664 5660 5660 5656 5653 5650 5646 5639 5633 5628 5623 5622 5622 5621 5621 5622 5619 5616 5617 5604 5603 5597 5590 5590 5595 5596 5597 5596 5591 5590 5590 5593 5593
5701 5688 5680 5683 5690 5681 5674 5671 5662 5656 5649 5649 5646 5641 5637 5634 5631 5627 5622 5618 5614 5611 5610 5609 5608 5607 5606 5604 5601 5603 5597 5586 5584 5580 5581 5584 5584 5582 5577 5578 5578 5576 5578
5692 5695 5692 5691 5680 5671 5663 5652 5646 5643 5640 5635 5630 5625 5622 5619 5616 5612 5608 5605 5601 5598 5596 5595 5595 5593 5592 5591 5587 5588 5582 5577 5574 5571 5571 5571 5572 5569 5568 5567 5563 5563 5561
5683 5683 5680 5676 5667 5656 5648 5644 5638 5633 5628 5624 5618 5615 5610 5606 5601 5596 5594 5592 5588 5583 5581 5580 5580 5580 5580 5578 5574 5571 5567 5563 5561 5560 5560 5563 5564 5561 5563 5560 5560 5553 5549
5671 5666 5662 5655 5650 5645 5639 5634 5627 5621 5616 5609 5603 5600 5594 5591 5587 5583 5579 5576 5573 5568 5565 5564 5563 5563 5564 5564 5562 5558 5555 5550 5549 5548 5553 5553 5555 5558 5555 5553 5551 5544 5543
5666 5660 5656 5650 5644 5636 5630 5623 5616 5609 5602 5596 5591 5585 5580 5576 5574 5570 5567 5561 5556 5553 5551 5550 5550 5552 5551 5550 5551 5549 5545 5540 5538 5537 5536 5535 5536 5541 5541 5543 5546 5543 5544
5658 5653 5647 5641 5635 5628 5620 5612 5606 5597 5590 5583 5576 5570 5565 5561 5556 5553 5549 5546 5543 5541 5542 5538 5535 5534 5533 5531 5531 5531 5532 5529 5527 5526 5525 5527 5529 5530 5529 5536 5532 5532 5530
5648 5643 5640 5633 5625 5616 5607 5600 5591 5585 5577 5569 5562 5555 5549 5542 5540 5540 5537 5535 5532 5529 5527 5526 5524 5519 5516 5514 5514 5512 5512 5513 5516 5515 5517 5518 5517 5516 5517 5518 5522 5522 5521
5632 5629 5624 5617 5611 5603 5594 5587 5582 5575 5568 5560 5551 5544 5537 5528 5526 5519 5524 5519 5517 5515 5513 5509 5506 5503 5499 5498 5498 5496 5495 5496 5497 5500 5501 5502 5504 5505 5504 5506 5510 5514 5519
5622 5618 5612 5605 5599 5593 5583 5578 5571 5560 5546 5539 5534 5531 5525 5519 5518 5513 5512 5509 5506 5503 5499 5495 5493 5486 5484 5482 5481 5482 5484 5487 5486 5486 5489 5490 5493 5495 5498 5499 5505 5509 5516
5612 5607 5602 5595 5591 5585 5574 5563 5555 5545 5533 5521 5513 5508 5507 5505 5505 5502 5498 5496 5493 5488 5484 5481 5478 5475 5473 5474 5476 5479 5479 5476 5480 5479 5480 5482 5484 5488 5490 5495 5500 5505 5511
5605 5597 5590 5586 5581 5572 5564 5553 5538 5528 5519 5511 5491 5490 5495 5494 5496 5493 5489 5488 5486 5480 5478 5473 5468 5468 5469 5470 5474 5475 5472 5470 5473 5473 5473 5475 5477 5481 5483 5488 5495 5497 5502
5592 5584 5578 5572 5565 5562 5547 5538 5527 5519 5510 5501 5489 5481 5478 5484 5485 5483 5481 5481 5480 5478 5472 5468 5467 5465 5467 5470 5473 5473 5470 5468 5466 5467 5468 5470 5473 5475 5477 5482 5489 5491 5494
5577 5569 5562 5557 5551 5544 5537 5530 5523 5516 5509 5499 5486 5479 5476 5476 5476 5474 5473 5476 5475 5471 5467 5468 5468 5467 5466 5466 5469 5471 5468 5463 5462 5462 5463 5465 5466 5468 5472 5477 5485 5488 5490
5561 5557 5552 5547 5542 5536 5529 5525 5521 5514 5507 5498 5489 5482 5478 5476 5473 5471 5472 5472 5470 5468 5467 5466 5463 5463 5464 5461 5465 5464 5463 5461 5459 5459 5460 5463 5464 5467 5471 5477 5481 5480 5479
5549 5545 5542 5537 5532 5528 5524 5517 5510 5506 5502 5495 5487 5481 5477 5475 5474 5473 5472 5471 5472 5468 5465 5462 5460 5460 5457 5457 5455 5454 5456 5457 5457 5458 5457 5459 5462 5464 5466 5466 5469 5472 5471
5540 5538 5532 5528 5524 5521 5517 5509 5503 5497 5493 5488 5484 5480 5477 5476 5474 5473 5473 5474 5471 5467 5465 5463 5461 5458 5457 5455 5458 5456 5454 5455 5456 5456 5456 5457 5460 5461 5464 5465 5467 5469 5469
5531 5529 5524 5519 5515 5510 5505 5499 5494 5490 5486 5484 5482 5480 5476 5474 5474 5473 5473 5469 5466 5465 5464 5462 5460 5458 5458 5455 5455 5457 5455 5456 5457 5457 5460 5461 5461 5462 5463 5465 5466 5465 5467
5524 5520 5514 5508 5506 5500 5495 5490 5486 5482 5480 5477 5472 5470 5469 5470 5471 5471 5470 5468 5464 5463 5459 5457 5455 5454 5453 5451 5453 5453 5453 5453 5451 5451 5455 5457 5461 5463 5466 5464 5464 5461 5462
5512 5510 5505 5499 5494 5490 5487 5483 5477 5474 5471 5469 5468 5467 5462 5461 5463 5466 5465 5464 5460 5457 5453 5449 5447 5445 5444 5443 5444 5443 5442 5440 5440 5441 5442 5445 5449 5450 5453 5452 5451 5449 5447
5504 5500 5496 5492 5487 5483 5480 5475 5471 5466 5465 5462 5461 5462 5460 5460 5460 5461 5458 5457 5456 5453 5448 5445 5440 5438 5436 5434 5433 5433 5432 5430 5431 5431 5432 5433 5434 5435 5436 5436 5437 5437 5436
5495 5491 5491 5487 5483 5479 5473 5469 5465 5463 5460 5456 5455 5456 5457 5456 5454 5454 5453 5452 5451 5447 5443 5440 5436 5433 5431 5428 5425 5422 5420 5419 5420 5422 5423 5423 5423 5422 5421 5419 5419 5419 5423
5489 5488 5487 5483 5480 5478 5473 5466 5462 5461 5458 5455 5453 5451 5450 5451 5450 5448 5448 5446 5446 5443 5439 5435 5433 5430 5427 5424 5421 5417 5417 5418 5420 5420 5420 5420 5419 5418 5416 5413 5411 5410 5410
5488 5485 5482 5478 5476 5472 5468 5464 5458 5459 5457 5454 5453 5451 5449 5445 5443 5444 5444 5442 5443 5440 5436 5434 5432 5428 5425 5422 5419 5417 5418 5418 5418 5422 5422 5423 5423 5422 5417 5412 5411 5408 5409
5484 5479 5478 5476 5474 5471 5466 5465 5463 5457 5454 5452 5450 5445 5441 5439 5438 5437 5438 5438 5439 5438 5434 5433 5431 5428 5426 5423 5420 5420 5421 5422 5422 5424 5426 5427 5425 5423 5424 5421 5419 5415 5417